Flag for U.S.A. Weather past 2 weeks in Palm Springs, California, U.S.A.

Now
104 °F

Clear.


Feels Like: 99 °F
Forecast: 87 / 112 °F
Wind: 16 mph from Northwest

Location: Palm Springs Regional Airport

Current Time: Jul 23, 2014 at 10:08:23 PM

Latest Report: Jul 23, 2014 at 8:53 PM


Visibility: 10 mi

Pressure: 29.74 "Hg

Humidity: 12%

Dew point: 41 °F

Location of Palm SpringsLocation

Historic Weather in Palm Springs — Graph

°F

Palm Springs temperature yesterday

Maximum temperature yesterday: 109 °F (at 4:53 PM)
Minimum temperature yesterday: 76 °F (at 5:53 AM)
Average temperature yesterday: 91 °F

Past Weeks' High & Low Weather Summary

 TemperatureHumidityPressure
High115 °F (Jul 23, 2:53 PM)59% (Jul 14, 4:53 AM)29.97 "Hg (Jul 14, 4:53 AM)
Low75 °F (Jul 18, 5:53 AM)3% (Jul 23, 11:53 AM)29.70 "Hg (Jul 13, 5:53 PM)
Average93 °F28%29.84 "Hg
* Reported Jul 8 9:53 PM — Jul 23 8:53 PM, Palm Springs, Weather by CustomWeather, © 2014

Note: Actual official high and low records may vary slightly from our data, if they occured in-between our weather recording intervals... More about our weather records

Advertising

Palm Springs weather history for previous 24 hours

 ConditionsComfort  
Time TempWeatherWind HumidityBarometerVisibility
8:53 PM
Jul 23
104 °FClear.16 mph12%29.74 "Hg10 mi
7:53 PM106 °FSunny.16 mph11%29.74 "Hg10 mi
6:53 PM110 °FSunny.18 mph9%29.73 "Hg10 mi
5:53 PM113 °FSunny.15 mph7%29.72 "Hg10 mi
4:53 PM115 °FSunny.16 mph5%29.73 "Hg10 mi
3:53 PM115 °FSunny.16 mph5%29.75 "Hg10 mi
2:53 PM115 °FSunny.13 mph4%29.78 "Hg10 mi
1:53 PM114 °FSunny.N/A4%29.80 "Hg10 mi
12:53 PM114 °FSunny.7 mph3%29.82 "Hg10 mi
11:53 AM109 °FSunny.No wind3%29.84 "Hg10 mi
10:53 AM106 °FSunny.3 mph6%29.86 "Hg10 mi
9:53 AM101 °FSunny.3 mph11%29.87 "Hg10 mi
8:53 AM93 °FSunny.No wind20%29.88 "Hg10 mi
7:53 AM88 °FSunny.No wind27%29.88 "Hg10 mi
6:53 AM82 °FSunny.3 mph38%29.88 "Hg10 mi
5:53 AM78 °FClear.5 mph43%29.86 "Hg10 mi
4:53 AM82 °FClear.No wind34%29.85 "Hg10 mi
3:53 AM85 °FClear.No wind32%29.84 "Hg10 mi
2:53 AM83 °FClear.6 mph33%29.85 "Hg10 mi
1:53 AM87 °FClear.5 mph28%29.86 "Hg10 mi
12:53 AM88 °FClear.No wind28%29.86 "Hg10 mi
10:53 PM
Jul 22
95 °FClear.7 mph19%29.86 "Hg10 mi
Weather by CustomWeather, © 2014

See weather overviewHow to use our weather pages